Flag for Switzerland Weather past 2 weeks in Langenthal, Bern, Switzerland

Now
69 °F

Mild.


Feels Like: 69 °F
Forecast: 53 / 71 °F
Wind: 2 mph from Southwest

Location: Wynau

Current Time: Aug 29, 2014 at 12:38:22 PM

Latest Report: Aug 29, 2014 at 12:00 PM


Visibility: N/A

Pressure: 30.05 "Hg

Humidity: 77%

Dew point: 62 °F

Location of LangenthalLocation

Historic Weather in Langenthal — Graph

°F

Langenthal temperature yesterday

Maximum temperature yesterday: 78 °F (at 4:00 PM)
Minimum temperature yesterday: 56 °F (at 7:00 AM)
Average temperature yesterday: 65 °F

Past Weeks' High & Low Weather Summary

 TemperatureHumidityPressure
High78 °F (Aug 28, 4:00 PM)100% (Aug 17, 12:00 AM)30.23 "Hg (Aug 17, 12:00 AM)
Low46 °F (Aug 17, 4:00 AM)36% (Aug 18, 4:00 PM)29.78 "Hg (Aug 26, 6:00 PM)
Average59 °F78%30.01 "Hg
* Reported Aug 14 11:00 AM — Aug 29 11:00 AM, Langenthal, Weather by CustomWeather, © 2014

Note: Actual official high and low records may vary slightly from our data, if they occured in-between our weather recording intervals... More about our weather records

Advertising

Langenthal weather history for previous 24 hours

 ConditionsComfort  
Time TempWeatherWind HumidityBarometerVisibility
11:00 AM
Aug 29
66 °FMild.1 mph86%30.06 "HgN/A
10:00 AM62 °FCool.1 mph90%30.07 "HgN/A
9:00 AM61 °FCool.1 mph96%30.08 "HgN/A
8:00 AM60 °FCool.1 mph96%30.07 "HgN/A
7:00 AM59 °FCool.No wind95%30.06 "HgN/A
6:00 AM58 °FCool.No wind97%30.06 "HgN/A
5:00 AM58 °FCool.No wind96%30.06 "HgN/A
4:00 AM58 °FCool.No wind96%30.06 "HgN/A
3:00 AM57 °FCool.1 mph99%30.07 "HgN/A
2:00 AM58 °FCool.1 mph97%30.08 "HgN/A
1:00 AM58 °FCool.1 mph96%30.08 "HgN/A
12:00 AM59 °FCool.No wind96%30.08 "HgN/A
11:00 PM
Aug 28
61 °FCool.1 mph95%30.07 "HgN/A
10:00 PM62 °FCool.No wind94%30.06 "HgN/A
9:00 PM64 °FMild.No wind87%30.03 "HgN/A
8:00 PM67 °FMild.1 mph82%30.02 "HgN/A
7:00 PM69 °FMild.2 mph77%30.01 "HgN/A
6:00 PM74 °FMild.3 mph60%29.99 "HgN/A
5:00 PM75 °FMild.2 mph52%29.98 "HgN/A
4:00 PM78 °FWarm.5 mph46%29.98 "HgN/A
3:00 PM77 °FWarm.3 mph50%29.99 "HgN/A
2:00 PM76 °FMild.5 mph50%30.00 "HgN/A
1:00 PM75 °FMild.5 mph52%30.01 "HgN/A
12:00 PM73 °FMild.3 mph59%30.02 "HgN/A
Weather by CustomWeather, © 2014

See weather overviewHow to use our weather pages